Home > Weather > Allschwil > Past weeks

Flag for Switzerland Past Weather in Allschwil, Basel-Land, Switzerland — Yesterday and Last 2 Weeks

Now
60 °F

Light rain. Low clouds.


Feels Like: 60 °F
Forecast: 56 / 63 °F
Wind: 5 mph from South

Location: Bale-Mulhouse

Current Time: May 29, 2016 at 11:17:00 PM

Latest Report: May 29, 2016 at 10:00 PM


Visibility: 19 mi

Pressure: 29.75 "Hg

Humidity: 90%

Dew Point: 57 °F

Location of AllschwilLocation

Past Weather in Allschwil — Graph

°F

Allschwil Temperature Yesterday

Maximum temperature yesterday: 77 °F (at 6:00 PM)
Minimum temperature yesterday: 62 °F (at 6:00 AM)
Average temperature yesterday: 69 °F

High & Low Weather Summary for the Past Weeks

 TemperatureHumidityPressure
High80 °F (May 27, 5:00 PM)98% (May 26, 6:00 AM)30.25 "Hg (May 26, 6:00 AM)
Low40 °F (May 16, 2:00 AM)38% (May 18, 3:00 PM)29.70 "Hg (May 29, 12:00 PM)
Average58 °F74%29.99 "Hg
* Reported May 14 10:00 PM — May 29 10:00 PM, Allschwil, Weather by CustomWeather, © 2016

Note: Actual official high and low records may vary slightly from our data, if they occured in-between our weather recording intervals... More about our weather records

Advertising

Allschwil Weather History for the Previous 24 Hours

Scroll right to see more
 ConditionsComfort  
Time TempWeatherWind HumidityBarometerVisibility
10:00 PM
Sun, May 29
60 °FLight rain. Low clouds.5 mph90%29.75 "Hg19 mi
9:00 PM61 °FLight rain. Low clouds.3 mph93%29.74 "Hg12 mi
8:00 PM62 °FLow clouds.5 mph91%29.72 "Hg28 mi
7:00 PM62 °FLow clouds.3 mph90%29.73 "Hg16 mi
6:00 PM61 °FLight rain. Low clouds.5 mph92%29.72 "Hg16 mi
5:00 PM60 °FLight rain. Overcast.5 mph89%29.73 "Hg6 mi
4:00 PM62 °FLight rain. Low clouds.7 mph92%29.72 "Hg5 mi
3:00 PM62 °FRain. Overcast.5 mph91%29.72 "Hg5 mi
2:00 PM64 °FLight rain. Overcast.8 mph84%29.72 "Hg7 mi
1:00 PM66 °FOvercast.3 mph73%29.70 "Hg19 mi
12:00 PM66 °FOvercast.1 mph71%29.70 "Hg19 mi
11:00 AM65 °FOvercast.2 mph75%29.72 "Hg19 mi
10:00 AM62 °FLow clouds.3 mph84%29.74 "Hg19 mi
9:00 AM58 °FLow clouds.1 mph91%29.74 "Hg6 mi
8:00 AM57 °FLow clouds.3 mph96%29.74 "Hg5 mi
7:00 AM56 °FLow clouds.3 mph97%29.73 "Hg5 mi
6:00 AM55 °FFog.3 mph96%29.74 "Hg2 mi
5:00 AM56 °FLow clouds.3 mph96%29.75 "Hg9 mi
4:00 AM56 °FOvercast.2 mph95%29.77 "Hg22 mi
3:00 AM57 °FOvercast.2 mph92%29.78 "Hg25 mi
2:00 AM60 °FOvercast.12 mph88%29.80 "Hg25 mi
1:00 AM61 °FCool.3 mph95%29.73 "Hg5 mi
12:00 AM62 °FThunderstorms. Overcast.3 mph92%29.79 "Hg7 mi
11:00 PM
Sat, May 28
63 °FThundershowers. Overcast.10 mph84%29.76 "Hg7 mi
Weather by CustomWeather, © 2016

See weather overviewHow to use our weather pages